Volver al catálogo

CHINASAT 3B

ActivoComunicacionesGEO
NORAD 64062·PAYLOAD·🇨🇳 China

Lanzado May 20, 2025 desde Wenchang Space Launch Site

Loading…

TLE

ActualizadoSource: Space-Track

Época: Sep 14, 2026, 11:10 UTC

1 64062U 25106A   26257.46575134 -.00000053  00000-0  00000-0 0  9998
2 64062   0.0106 224.8515 0002246 317.1356 146.4588  1.00273799  4956

Sigue CHINASAT 3B en tiempo real con AllMySat

Download on the App Store